EW9741 Weather Reports


time (UTC)temp
F
wind
direction
speed
knots
gust
knots
rain 1hr
in
rain 24hr
in
rain mn
in
humidity
%
barometer
mb
20260508230011 67 190 0.0 0.0 0.00 0.00 0.00 45 1008.5
20260508224510 67 190 0.0 0.0 0.00 0.00 0.00 43 1008.5
20260508223043 68 190 0.0 0.0 0.00 0.00 0.00 42 1008.4
20260508221538 68 190 0.0 0.0 0.00 0.00 0.00 42 1008.4
20260508220038 68 190 0.0 0.0 0.00 0.00 0.00 42 1008.4
20260508214535 68 190 0.0 0.0 0.00 0.00 0.00 41 1008.5
20260508213031 68 190 0.0 0.0 0.00 0.00 0.00 41 1008.6
20260508211538 68 190 0.0 0.0 0.00 0.00 0.00 40 1008.7
20260508210026 68 190 0.0 0.0 0.00 0.00 0.00 40 1008.9
20260508204524 68 190 0.0 0.0 0.00 0.00 0.00 39 1009.2
20260508203026 68 190 0.0 0.0 0.00 0.00 0.00 39 1009.4
20260508201521 68 190 0.0 9.6 0.00 0.00 0.00 39 1009.4
20260508200051 68 190 0.0 7.8 0.00 0.00 0.00 38 1009.7
20260508194554 68 190 0.0 10.4 0.00 0.00 0.00 39 1009.7
20260508193100 69 190 0.0 7.8 0.00 0.00 0.00 38 1009.8
20260508191547 69 190 0.0 9.6 0.00 0.00 0.00 38 1010.0
20260508190043 69 190 0.0 12.2 0.00 0.00 0.00 37 1010.3
20260508184543 68 190 0.0 11.3 0.00 0.00 0.00 39 1010.5
20260508183010 68 190 3.5 11.3 0.00 0.00 0.00 37 1010.7
20260508181509 69 190 0.9 6.1 0.00 0.00 0.00 37 1010.9
20260508180038 69 190 0.0 0.0 0.00 0.00 0.00 37 1011.2
20260508174538 69 190 0.0 6.1 0.00 0.00 0.00 38 1011.3
20260508173031 67 190 0.0 0.0 0.00 0.00 0.00 43 1011.6
20260508171535 67 190 0.0 12.2 0.00 0.00 0.00 43 1011.9
20260508170026 67 190 0.9 13.9 0.00 0.00 0.00 45 1012.2
20260508164524 67 190 0.9 10.4 0.00 0.00 0.00 43 1012.5
20260508163019 66 190 0.0 8.7 0.00 0.00 0.00 44 1012.6
20260508161517 66 190 0.0 7.8 0.00 0.00 0.00 44 1012.7
20260508160016 65 190 0.0 0.0 0.00 0.00 0.00 46 1013.1
20260508154513 64 190 2.6 10.4 0.00 0.00 0.00 46 1013.1
20260508153009 64 190 0.0 0.0 0.00 0.00 0.00 47 1013.4
20260508151509 62 190 0.0 0.0 0.00 0.00 0.00 47 1013.5
20260508150010 62 190 0.0 7.0 0.00 0.00 0.00 48 1013.6
20260508144502 61 190 0.0 0.0 0.00 0.00 0.00 49 1013.6
20260508143033 60 190 1.7 10.4 0.00 0.00 0.00 47 1013.8
20260508141533 60 190 0.0 7.0 0.00 0.00 0.00 52 1013.9
20260508140029 58 190 1.7 7.8 0.00 0.00 0.00 54 1014.0
20260508134529 56 190 0.0 6.1 0.00 0.00 0.00 56 1014.1
20260508133027 55 190 0.0 3.5 0.00 0.00 0.00 59 1014.1
20260508131530 53 190 0.0 7.0 0.00 0.00 0.00 60 1014.1
20260508130023 53 190 0.0 0.0 0.00 0.00 0.00 64 1013.9
20260508124522 52 190 0.0 1.7 0.00 0.00 0.00 65 1013.9
20260508123022 50 190 0.0 0.0 0.00 0.00 0.00 69 1013.8
20260508121521 47 190 0.0 0.0 0.00 0.00 0.00 70 1013.9
20260508120032 48 190 0.0 0.0 0.00 0.00 0.00 70 1013.9
20260508114520 47 190 0.0 0.0 0.00 0.00 0.00 71 1013.7
20260508111531 46 190 0.0 0.0 0.00 0.00 0.00 71 1013.5
20260508110027 46 190 0.0 0.0 0.00 0.00 0.00 71 1013.4
20260508104527 46 190 0.0 0.0 0.00 0.00 0.00 70 1013.3
20260508103022 47 190 0.0 0.0 0.00 0.00 0.00 70 1013.3
20260508101514 47 190 0.0 0.0 0.00 0.00 0.00 69 1013.3
20260508100013 47 190 0.0 0.0 0.00 0.00 0.00 68 1013.3
20260508094513 47 190 0.0 0.0 0.00 0.00 0.00 68 1013.2
20260508091550 46 190 0.0 0.0 0.00 0.00 0.00 68 1013.3
20260508090042 46 190 0.0 0.0 0.00 0.00 0.00 68 1013.3
20260508084539 46 190 0.0 0.0 0.00 0.00 0.00 68 1013.1
20260508083045 46 190 0.0 0.0 0.00 0.00 0.00 68 1013.1
20260508081545 46 190 0.0 0.0 0.00 0.00 0.00 68 1013.0
20260508080036 46 190 0.0 0.0 0.00 0.00 0.00 67 1013.1
20260508074540 46 190 0.0 0.0 0.00 0.00 0.00 67 1013.1
20260508073034 46 190 0.0 0.0 0.00 0.00 0.00 66 1013.1
20260508071505 46 190 0.0 0.0 0.00 0.00 0.00 66 1013.1
20260508070002 46 190 0.0 0.0 0.00 0.00 0.00 66 1013.1
20260508064559 47 190 0.0 0.0 0.00 0.00 0.00 64 1013.5
20260508063104 47 190 0.0 0.0 0.00 0.00 0.00 64 1013.6
20260508061606 47 190 0.0 0.0 0.00 0.00 0.00 64 1013.7
20260508060058 47 190 0.0 0.0 0.00 0.00 0.00 64 1013.8
20260508054556 47 190 0.0 0.0 0.00 0.00 0.00 66 1013.8
20260508053101 47 190 0.0 0.0 0.00 0.00 0.00 65 1013.8
20260508051605 47 190 0.0 0.0 0.00 0.00 0.00 65 1013.7
20260508050054 47 190 0.0 0.0 0.00 0.00 0.00 63 1013.7
20260508044548 48 190 0.0 0.0 0.00 0.00 0.00 63 1013.7
20260508043052 47 190 0.0 0.0 0.00 0.00 0.00 63 1013.6
20260508041546 47 190 0.0 0.0 0.00 0.00 0.00 64 1013.6
20260508040045 48 190 0.0 0.0 0.00 0.00 0.00 63 1013.5
20260508034548 48 190 0.0 0.0 0.00 0.00 0.00 63 1013.6
20260508033040 48 190 0.0 0.0 0.00 0.00 0.00 60 1013.7
20260508031537 49 190 0.0 0.0 0.00 0.00 0.00 57 1013.6
20260508030036 50 190 0.0 0.0 0.00 0.00 0.00 55 1013.7
20260508024504 50 190 0.0 0.0 0.00 0.00 0.00 55 1013.6
20260508023006 50 190 0.0 0.0 0.00 0.00 0.00 55 1013.5
20260508021500 49 190 0.0 0.0 0.00 0.00 0.00 59 1013.5
20260508020101 50 190 0.0 0.0 0.00 0.00 0.00 59 1013.5
20260508014559 50 190 0.0 0.0 0.00 0.00 0.00 58 1013.5
20260508013054 51 190 0.0 0.0 0.00 0.00 0.00 54 1013.5
20260508011522 53 190 0.0 0.0 0.00 0.00 0.00 47 1013.4
20260508010018 53 190 0.0 0.0 0.00 0.00 0.00 47 1013.3
20260508004511 55 190 0.0 0.0 0.00 0.00 0.00 46 1013.2
20260508003006 56 190 0.0 0.0 0.00 0.00 0.00 43 1013.1
20260508001502 57 190 0.0 0.0 0.00 0.00 0.00 39 1013.0
20260508000101 58 190 0.0 0.0 0.00 0.00 0.00 38 1013.0
20260507234558 60 190 0.0 0.0 0.00 0.00 0.00 36 1012.9
20260507233056 59 190 0.0 0.0 0.00 0.00 0.00 36 1012.9
20260507231558 59 190 0.0 0.0 0.00 0.00 0.00 36 1012.7